QAK617 MMAA-MMMX

Flight info

Callsign QAK617
Flight time N/A
Altitude 30000
Route ALNUS1B ALNUS UT117 ESPOS ESPOS3A
Aircraft B738/M-SDE2E3FGHIRWXY/LB1

Departure

Time N/A
Airport General Juan N. Álvarez International Airport (MMAA)

Arrival

Time 2026-05-06 15:17
Airport Mexico City Benito Juárez International Airport (MMMX)
Time Latitude Longitude Altitude Speed Heading
2026-05-06 15:16 19.43592 -99.06995 7323 ft 105 kts 60°
2026-05-06 15:17 19.43862 -99.06506 7322 ft 46 kts 61°
2026-05-06 15:17 19.43890 -99.06139 7322 ft 7 kts 238°
2026-05-06 15:18 19.43850 -99.06197 7322 ft 10 kts 237°
2026-05-06 15:18 19.43804 -99.06280 7322 ft 15 kts 240°
2026-05-06 15:18 19.43763 -99.06353 7322 ft 17 kts 239°
2026-05-06 15:18 19.43717 -99.06434 7322 ft 20 kts 239°
2026-05-06 15:19 19.43670 -99.06519 7322 ft 22 kts 240°
2026-05-06 15:19 19.43588 -99.06665 7322 ft 14 kts 234°
2026-05-06 15:19 19.43480 -99.06743 7322 ft 14 kts 209°
2026-05-06 15:19 19.43410 -99.06846 7322 ft 14 kts 251°
2026-05-06 15:20 19.43353 -99.06951 7322 ft 15 kts 239°
2026-05-06 15:20 19.43296 -99.07052 7322 ft 16 kts 238°
2026-05-06 15:20 19.43261 -99.07176 7322 ft 18 kts 264°
2026-05-06 15:20 19.43220 -99.07310 7322 ft 20 kts 238°
2026-05-06 15:21 19.43143 -99.07446 7322 ft 22 kts 239°
2026-05-06 15:21 19.43061 -99.07590 7322 ft 23 kts 239°
2026-05-06 15:21 19.42992 -99.07712 7322 ft 16 kts 239°
2026-05-06 15:21 19.42921 -99.07797 7322 ft 14 kts 223°
2026-05-06 15:22 19.42845 -99.07848 7322 ft 12 kts 210°
2026-05-06 15:22 19.42780 -99.07893 7322 ft 10 kts 226°
2026-05-06 15:22 19.42742 -99.07950 7322 ft 8 kts 236°
2026-05-06 15:22 19.42712 -99.07994 7322 ft 6 kts 236°
2026-05-06 15:23 19.42692 -99.08029 7322 ft 4 kts 240°
2026-05-06 15:23 19.42676 -99.08061 7322 ft 5 kts 245°
2026-05-06 15:23 19.42653 -99.08104 7322 ft 8 kts 239°
2026-05-06 15:23 19.42622 -99.08160 7322 ft 9 kts 240°
2026-05-06 15:24 19.42593 -99.08211 7322 ft 7 kts 239°
2026-05-06 15:24 19.42567 -99.08259 7322 ft 8 kts 241°
2026-05-06 15:24 19.42521 -99.08285 7322 ft 9 kts 166°
2026-05-06 15:24 19.42465 -99.08257 7322 ft 9 kts 149°
2026-05-06 15:25 19.42440 -99.08241 7322 ft 0 kts 149°
2026-05-06 15:25 19.42439 -99.08240 7322 ft 0 kts 150°
2026-05-06 15:25 19.42426 -99.08233 7322 ft 4 kts 151°
2026-05-06 15:26 19.42386 -99.08212 7322 ft 8 kts 161°
2026-05-06 15:26 19.42314 -99.08206 7322 ft 11 kts 182°
2026-05-06 15:26 19.42228 -99.08206 7322 ft 13 kts 152°
2026-05-06 15:26 19.42173 -99.08125 7322 ft 14 kts 119°
2026-05-06 15:27 19.42128 -99.08044 7322 ft 8 kts 117°
2026-05-06 15:27 19.42140 -99.08000 7322 ft 6 kts 37°
2026-05-06 15:27 19.42152 -99.07991 7322 ft 0 kts 32°